Location: Zagreb
(45.8000°N, 16.0000°E)
Time: 20:07:42
(UTC+02:00)

ISS - Pass Details

Date: 01 October 2021
Orbit: 417 x 423 km, 51.6° (Epoch: 23 October)

Event Time Altitude Azimuth Distance (km) Brightness Sun altitude
Rises 20:16:45 0° 298° (WNW) 2,365 1.6 -18.3°
Reaches altitude 10° 20:18:51 10° 298° (WNW) 1,500 0.2 -18.6°
Maximum altitude 20:22:13 87° 210° (SSW) 424 -3.9 -19.2°
Enters shadow 20:22:27 76° 130° (SE) 435 -3.9 -19.2°
